Triuchirapalli, India

12:24 AM IST on September 19, 2019 (GMT +0530)
Tiruchirappalli

Weather History for VOTR - July, 2019

Change the Weather History Date:

Wednesday, July 10, 2019

  Actual Average Record
Temperature  
Mean Temperature 90 °F -  
Max Temperature 102 °F 93 °F 102 °F (2017)
Min Temperature 79 °F 80 °F 75 °F (2012)
Cooling Degree Days 26    
Growing Degree Days 40 (Base 50)    
Moisture  
Dew Point 71 °F    
Average Humidity 55    
Maximum Humidity 79    
Minimum Humidity 23    
Precipitation  
Precipitation 0.00 in - - ()
Sea Level Pressure  
Sea Level Pressure 29.72 in    
Wind  
Wind Speed 8 mph ()    
Max Wind Speed 15 mph    
Max Gust Speed 23 mph    
Visibility 3.7 miles    
Events Rain    
Averages and records for this station are not official NWS values.
T = Trace of Precipitation, MM = Missing Value Source: Averaged Metar Reports

Daily Weather History Graph

Daily Weather History Graph

Search for Another Location

Airport or City:

Astronomy

Jul. 10, 2019 Rise Set
Actual Time 5:58 AM IST 6:41 PM IST
Civil Twilight 5:35 AM IST 7:04 PM IST
Nautical Twilight 5:08 AM IST 7:31 PM IST
Astronomical Twilight 4:41 AM IST 7:59 PM IST
Moon 1:03 PM IST (7/10) No Moon Set
Length of Visible Light 13h 29m
Length of Day
12h 43m
First Quarter, 59% of the Moon is Illuminated
Jul 10
First Quarter
Jul 17
Full
Jul 25
Last Quarter
Aug 1
New
Aug 7
First Quarter

Hourly Weather History & Observations

Time (IST) Temp. Heat Index Dew Point Humidity Pressure Visibility Wind Dir Wind Speed Gust Speed Precip Events Conditions
12:00 AM 80.6 °F 85.4 °F 73.4 °F 79% 29.77 in 3.7 mi WSW 4.6 mph - N/A   Light Drizzle
12:30 AM 80.6 °F 85.4 °F 73.4 °F 79% 29.74 in 3.7 mi West 10.4 mph - N/A   Drizzle
1:00 AM 80.6 °F 85.4 °F 73.4 °F 79% 29.74 in 3.7 mi West 9.2 mph - N/A   Light Drizzle
1:30 AM 80.6 °F 85.4 °F 73.4 °F 79% 29.74 in 3.7 mi WNW 10.4 mph - N/A   Mostly Cloudy
2:00 AM 80.6 °F 85.4 °F 73.4 °F 79% 29.71 in 3.7 mi WNW 9.2 mph - N/A   Mostly Cloudy
2:30 AM 82 °F - 71 °F 61% 29.72 in 2 mi WNW 9.2 mph - - Rain Light Drizzle
2:30 AM 82.4 °F 87.2 °F 71.6 °F 70% 29.71 in 3.7 mi WNW 9.2 mph - N/A   Scattered Clouds
3:00 AM 82.4 °F 87.2 °F 71.6 °F 70% 29.71 in 3.7 mi West 5.8 mph - N/A   Mostly Cloudy
3:30 AM 82.4 °F 87.2 °F 71.6 °F 70% 29.71 in 3.7 mi West 9.2 mph - N/A   Mostly Cloudy
4:00 AM 82.4 °F 87.2 °F 71.6 °F 70% 29.71 in 3.7 mi West 9.2 mph - N/A   Mostly Cloudy
4:30 AM 80.6 °F 84.6 °F 71.6 °F 74% 29.71 in 3.7 mi West 9.2 mph - N/A   Mostly Cloudy
5:00 AM 80.6 °F 84.6 °F 71.6 °F 74% 29.71 in 3.7 mi WSW 5.8 mph - N/A   Mostly Cloudy
5:30 AM 82 °F - 71 °F 61% 29.71 in 2 mi SW 4.6 mph - -   Partly Cloudy
5:30 AM 82.4 °F 87.2 °F 71.6 °F 70% 29.71 in 3.7 mi SW 4.6 mph - N/A   Scattered Clouds
6:00 AM 82.4 °F 87.2 °F 71.6 °F 70% 29.71 in 3.7 mi SW 4.6 mph - N/A   Scattered Clouds
6:30 AM 82.4 °F 87.2 °F 71.6 °F 70% 29.74 in 3.7 mi South 3.5 mph - N/A   Scattered Clouds
7:00 AM 84.2 °F 89.6 °F 71.6 °F 66% 29.74 in 3.7 mi South 4.6 mph - N/A   Scattered Clouds
7:30 AM 84.2 °F 89.6 °F 71.6 °F 66% 29.74 in 3.7 mi SSW 5.8 mph - N/A   Scattered Clouds
8:00 AM 84.2 °F 89.6 °F 71.6 °F 66% 29.74 in 3.7 mi SSW 5.8 mph - N/A   Scattered Clouds
8:30 AM 85 °F - 74 °F 62% 29.77 in 2 mi SW 4.6 mph - -   Scattered Clouds
8:30 AM 86.0 °F 93.4 °F 73.4 °F 66% 29.77 in 3.7 mi SW 4.6 mph - N/A   Mostly Cloudy
9:00 AM 86.0 °F 93.4 °F 73.4 °F 66% 29.77 in 3.7 mi SW 4.6 mph - N/A   Mostly Cloudy
9:30 AM 87.8 °F 93.8 °F 71.6 °F 58% 29.77 in 3.7 mi WSW 5.8 mph - N/A   Mostly Cloudy
10:00 AM 89.6 °F 96.2 °F 71.6 °F 55% 29.77 in 3.7 mi WSW 6.9 mph - N/A   Mostly Cloudy
10:30 AM 91.4 °F 98.4 °F 71.6 °F 52% 29.77 in 3.7 mi SW 6.9 mph - N/A   Scattered Clouds
11:00 AM 93.2 °F 100.5 °F 71.6 °F 49% 29.74 in 3.7 mi SW 6.9 mph - N/A   Scattered Clouds
11:30 AM 95 °F - 72 °F 37% 29.73 in 2 mi WSW 9.2 mph - -   Scattered Clouds
11:30 AM 95.0 °F 103.2 °F 71.6 °F 47% 29.74 in 3.7 mi WSW 9.2 mph - N/A   Scattered Clouds
12:00 PM 95.0 °F 103.2 °F 71.6 °F 47% 29.71 in 5.0 mi WSW 9.2 mph - N/A   Scattered Clouds
12:30 PM 96.8 °F 103.1 °F 69.8 °F 41% 29.71 in 5.0 mi West 11.5 mph - N/A   Scattered Clouds
1:00 PM 98.6 °F 104.1 °F 68.0 °F 37% 29.68 in 5.0 mi WNW 13.8 mph - N/A   Scattered Clouds
1:30 PM 100.4 °F 106.3 °F 68.0 °F 35% 29.68 in 5.0 mi West 15.0 mph - N/A   Scattered Clouds
2:00 PM 100.4 °F 106.3 °F 68.0 °F 35% 29.65 in 5.0 mi West 12.7 mph - N/A   Scattered Clouds
2:30 PM 101 °F - 66 °F 23% 29.64 in 2 mi West 11.5 mph - -   Partly Cloudy
2:30 PM 100.4 °F 104.9 °F 66.2 °F 33% 29.65 in 5.0 mi West 11.5 mph - N/A   Scattered Clouds
3:30 PM 102.2 °F 106.9 °F 66.2 °F 31% 29.65 in 5.0 mi West 11.5 mph 23.0 mph N/A   Scattered Clouds
4:00 PM 102.2 °F 106.9 °F 66.2 °F 31% 29.62 in 5.0 mi West 11.5 mph 23.0 mph N/A   Partly Cloudy
4:30 PM 100.4 °F 104.9 °F 66.2 °F 33% 29.62 in 5.0 mi WNW 11.5 mph 23.0 mph N/A   Partly Cloudy
5:00 PM 100.4 °F 104.9 °F 66.2 °F 33% 29.65 in 5.0 mi WSW 13.8 mph - N/A   Partly Cloudy
5:30 PM 97 °F - 72 °F 34% 29.65 in 2 mi SSW 9.2 mph - -   Haze
5:30 PM 96.8 °F 105.1 °F 71.6 °F 44% 29.65 in 5.0 mi SSW 9.2 mph - N/A   Partly Cloudy
6:00 PM 96.8 °F 105.1 °F 71.6 °F 44% 29.68 in 5.0 mi SW 8.1 mph - N/A   Partly Cloudy
6:30 PM 95.0 °F 104.5 °F 73.4 °F 49% 29.71 in 3.7 mi WSW 9.2 mph - N/A   Partly Cloudy
7:00 PM 95.0 °F 104.5 °F 73.4 °F 49% 29.71 in 3.7 mi West 11.5 mph - N/A   Partly Cloudy
7:30 PM 93.2 °F 102.4 °F 73.4 °F 52% 29.71 in 3.7 mi West 11.5 mph - N/A   Partly Cloudy
8:00 PM 93.2 °F 102.4 °F 73.4 °F 52% 29.74 in 3.7 mi West 11.5 mph - N/A   Partly Cloudy
8:30 PM 90 °F - 70 °F 43% 29.76 in 2 mi West 11.5 mph - -   Haze
8:30 PM 89.6 °F 94.7 °F 69.8 °F 52% 29.77 in 3.7 mi West 11.5 mph - N/A   Mostly Cloudy
9:00 PM 87.8 °F 93.8 °F 71.6 °F 58% 29.77 in 3.7 mi West 15.0 mph - N/A   Mostly Cloudy
10:00 PM 86.0 °F 90.4 °F 69.8 °F 58% 29.77 in 3.7 mi WNW 11.5 mph - N/A   Scattered Clouds
10:30 PM 86.0 °F 90.4 °F 69.8 °F 58% 29.77 in 3.7 mi West 12.7 mph - N/A   Scattered Clouds
11:00 PM 86.0 °F 90.4 °F 69.8 °F 58% 29.77 in 3.7 mi West 11.5 mph - N/A   Scattered Clouds
11:30 PM 86 °F - 70 °F 49% 29.78 in 2 mi WNW 10.4 mph - -   Haze
11:30 PM 86.0 °F 90.4 °F 69.8 °F 58% 29.77 in 3.7 mi West 10.4 mph - N/A   Scattered Clouds